Regional Weather Roundup
Issued by NWS Wakefield, VA

Home | Current Version | Previous Version | Graphics & Text | Print | Product List | Glossary On
Versions: 1 2 3 4 5 6 7 8 9 10 11 12 13 14 15 16 17 18 19 20 21 22 23 24 25 26 27 28 29 30 31 32 33 34 35 36 37 38 39 40 41 42 43 44 45 46 47 48 49 50
000
ASUS41 KAKQ 271810
RWRAKQ

REGIONAL WEATHER ROUNDUP
NATIONAL WEATHER SERVICE WAKEFIELD VA
100 PM EST TUE JAN 27 2015

Note: "fair" indicates few or no clouds below 12,000 feet with no
significant weather and/or obstructions to visibility. * = Denotes
station may not report precipitation (e.g., rain,snow,etc.),
thunder or fog.

VAZ042-051-052>054-056-271900-
NORTHERN VIRGINIA

CITY           SKY/WX    TMP DP  RH WIND       PRES   REMARKS
WASH NATIONAL  PTSUNNY   35  23  61 N16       29.81F
DULLES         PTSUNNY   31  22  69 NW17G24   29.81F WCI  19
FORT BELVOIR   PTSUNNY   32  23  69 NW15G22   29.81F WCI  22
QUANTICO       PTSUNNY   34  22  61 N10G26    29.82F
FREDERICKSBRG* CLOUDY    36  25  64 NW13G18   29.81S
STAFFORD*      PTSUNNY   33  23  66 NW13G18   29.85S WCI  24
WARRENTON      PTSUNNY   36  29  77 NW9G16    29.81F
CULPEPER*      PTSUNNY   34  25  69 N14       29.82F WCI  24
MANASSAS*      PTSUNNY   34  25  69 N13G21    29.82F WCI  25
LEESBURG*      CLOUDY    32  28  86 NW14G20   29.82F HAZE    WCI  22
WINCHESTER     FLURRIES  32  19  59 W14       29.83S WCI  22
FRONT ROYAL*   CLOUDY    30  23  74 NW6       29.82F
LURAY*         CLOUDY    32  25  74 SW3       29.82F
$$

VAZ048-049-060>072-079>083-271900-
CENTRAL AND SOUTH CENTRAL VIRGINIA

CITY           SKY/WX    TMP DP  RH WIND       PRES   REMARKS
RICHMOND       CLOUDY    36  26  67 NW14G23   29.79F
CHESTERFIELD*  CLOUDY    36  19  51 NW9       29.81F
PETERSBURG*    CLOUDY    36  30  79 N12       29.80F
HANOVER        CLOUDY    35  24  64 NW13G20   29.81F
TAPPAHANNOCK*  CLOUDY    34  22  62 NW8       29.79F
QUINTON*       CLOUDY    35  25  68 NW8G17    29.78F
CHARLOTTSVILLE CLOUDY    33  22  63 NW9       29.80F
GORDONSVILLE*  CLOUDY    32  25  75 NW5       29.80F
ORANGE*        CLOUDY    36  28  75 NW7       29.81F
LOUISA*        FLURRIES  34  28  80 NW6       29.79F
BUMPASS*       CLOUDY    34  22  63 NW8       29.80F
FARMVILLE*     CLOUDY    42  23  48 NW6       29.79F
CREWE*         CLOUDY    34  27  76 N6        29.80F
FORT PICKETT*  CLOUDY    33  29  88 NW7       29.80S
CHASE CITY*    MOCLDY    41  27  57 W3        29.78F
CLARKSVILLE*   FAIR      37  23  56 NW5       29.79F
SOUTH HILL*    CLOUDY    35  26  69 N8        29.85F
LAWRENCEVILLE* CLOUDY    33  30  86 N8        29.80F
EMPORIA*       CLOUDY    32  30  93 W6        29.81F
$$

VAZ088>098-271900-
SOUTHEAST VIRGINIA

CITY           SKY/WX    TMP DP  RH WIND       PRES   REMARKS
NORFOLK        CLOUDY    34  25  69 NW10G20   29.75F
VIRGINIA BEACH CLOUDY    35  28  75 N16       29.74F
NORFOLK NAVAL  PTSUNNY   36  26  67 NW15      29.77F
WEST POINT*    CLOUDY    37  26  65 NW8       29.80S
SALUDA*        MOCLDY    33  26  74 NW10G18   29.77S WCI  25
NEWPORT NEWS   CLOUDY    37  26  64 N14       29.76F
LANGLEY AFB    CLOUDY    34  27  74 N9        29.76F
FORT EUSTIS    CLOUDY    34  27  76 N8        29.75F
WILLIAMSBURG*    N/A     37  30  75 NW9       29.78F
HR EXEC AP*    CLOUDY    34  27  75 NW7G17    29.79S
FRANKLIN*      LGT SNOW  33  28  83 NW9       29.79F
WAKEFIELD      CLOUDY    35  25  66 N9G18     29.78F
$$

VAZ020-022-025-037-045-271900-
WEST CENTRAL AND SOUTHWEST VIRGINIA

CITY           SKY/WX    TMP DP  RH WIND       PRES   REMARKS
STAUNTON*      CLOUDY    32  19  60 NE10      29.82F WCI  23
WAYNESBORO*    CLOUDY    28  18  65 N8        29.78F
HOT SPRINGS VA SUNNY     22  10  59 NW16G24   29.65F WCI   8
LYNCHBURG      SUNNY     37   7  28 NW8       29.80F
DANVILLE       SUNNY     42   9  25 N8        29.81F
SOUTH BOSTON*  FAIR      39  12  32 NW8       29.80F
MARTINSVILLE   SUNNY     42   9  26 NW13      29.84S
ROANOKE        MOSUNNY   39   7  26 NW14      29.82F
BLACKSBURG     SUNNY     32   6  34 W7G20     29.82F
DUBLIN*        SUNNY     34   8  33 NW10      29.82F
MARION*        SUNNY     32  13  45 W15G24    29.84F WCI  21
HILLSVILLE*    SUNNY     31   5  32 NW21G28   29.75F WCI  19
RICHLANDS*     FAIR      28  12  52 NW7       29.85S
WISE*          PTSUNNY   28  18  64 NW6       29.89S
ABINGDON*      PTSUNNY   32  20  61 NW13      29.89S WCI  22
$$

MDZ021>025-VAZ099-100-271900-
SOUTHERN MARYLAND AND THE DELMARVA PENINSULA

CITY           SKY/WX    TMP DP  RH WIND       PRES   REMARKS
PATUXENT RIVER PTSUNNY   33  25  72 NW18      29.76F WCI  22
BAY BRIDGE APT   N/A     34  25  69 NW14G22   29.77F WCI  24
LEONARDTOWN    CLOUDY    32  25  74 NW7       29.78F
DOVER          PTSUNNY   32  27  80 NW17      29.71F WCI  21
GEORGETOWN     CLOUDY    32  24  72 NW8       29.71F
EASTON         CLOUDY    36  28  75 NW17G29   29.79F
CAMBRIDGE      PTSUNNY   36  28  75 N13G18    29.74F
SALISBURY      CLOUDY    34  26  72 NW17      29.72F WCI  23
OCEAN CITY     CLOUDY    32  25  75 NW13G22   29.71S WCI  22
WALLOPS ISLAND CLOUDY    33  26  75 N15       29.72F WCI  23
ACCOMACK*      CLOUDY    32  27  80 NW15G26   29.73F WCI  22
$$

NCZ012>017-030>032-271900-
NORTH CENTRAL AND EASTERN NORTH CAROLINA

CITY           SKY/WX    TMP DP  RH WIND       PRES   REMARKS
ROANOKE RAPIDS CLOUDY    36  30  80 NW10G17   29.80F
RALEIGH        PTSUNNY   38  18  44 W7        29.81F
ELIZABETH CITY CLOUDY    34  28  79 NW16      29.75F WCI  24
AHOSKIE*       CLOUDY    32  28  83 NW5       29.80S
EDENTON*       CLOUDY    33  30  88 NW9       29.77F
CURRITUCK*     CLOUDY    34  28  79 N10       29.75F
KILL DEVIL HLS CLOUDY    34  31  90 NW9G18    29.72S
MANTEO         CLOUDY    34  30  86 NW15G22   29.73F WCI  24
CAPE HATTERAS  CLOUDY    34  32  92 NW10G17   29.73S
TARBORO*       CLOUDY    37  30  78 N10G17    29.81F
GOLDSBORO      CLOUDY    37  36  93 NW10      29.79F
WASHINGTON     FLURRIES  35  28  75 N9G16     29.79F
GREENVILLE     PTSUNNY   36  30  80 N10       29.82F
NEW BERN       CLOUDY    38  27  64 NW14G22   29.79F
WILMINGTON     CLOUDY    40  32  73 NW13      29.80S
$$

VAZ048-271900-
ELSEWHERE

CITY           SKY/WX    TMP DP  RH WIND       PRES   REMARKS
HARRISBURG PA  PTSUNNY   29  12  49 N15       29.80F WCI  18
BALTIMORE      PTSUNNY   35  23  61 NW13      29.77F
ANNAPOLIS      PTSUNNY   34  23  64 NW10      29.77F
ANDREWS AFB    CLOUDY    32  23  70 NW15      29.78F WCI  22
PHILADELPHIA   PTSUNNY   32  13  45 N16G25    29.72F WCI  21
HENDERSON NC   MOSUNNY   38  24  57 N7        29.79F
GREENSBORO     MOSUNNY   41   9  26 N8        29.80F
ROCKY MOUNT    CLOUDY    37  29  72 W10       29.80F
$$

VAZ100-271900-
MARINE

STATION/POSITION TIME  TEMP    WIND        PRES    WAVE   SWELL
                       AIR SEA DIR/SP/G            HT/PER HT/PER
                 (UTC) (F)     (DEG/KT/KT) (MB)    (FT/S) (FT/S)
BRANDYWINE LGT   1800   31 37  340/ 21/ 26 1005.6F
CAPE MAY NJ      1800   31 38  350/ 11/ 17 1005.3F
LEWES DE         1800   31 37  340/ 20/ 26 1005.9F
15NM E FENWICK I 1700   31 42              1004.7F  12/13
OCEAN-CITY-INLET 1800   32 38  350/ 17/ 21 1005.4S
WACHAPREAGUE VA  1800   33 40  310/  4/ 12 1006.5F
THOMAS POINT MD  1800   33 37  330/ 14/ 15 1008.8F
GOOSES REEF MD   1800   33     VRB 17/ 19  1007.0S
COVE POINT MD    1800   31     340/ 18/ 20 1007.5F
SOLOMONS ISLAND  1800      38                N/A
BISHOPS HEAD MD  1800   33 37  330/ 15/ 21 1006.7F
PINEY POINT MD   1800          340/ 19/ 22   N/A
POTOMAC MD       1800   34     320/ 16/ 19 1006.7F
CAMBRIDGE MD     1800   33 36  330/ 17/ 20 1007.2S
LEWISETTA VA     1800   33 38  310/ 15/ 19 1007.9R
RAPPAHANNOCK LGT 1800          320/ 21/ 24 1007.5F
STINGRAY PT      1800   34     320/ 16/ 19 1008.0F
YORK RVR RNG VA  1800   34     340/ 15/ 19 1007.0F
JAMESTOWN VA     1800   32     360/ 12/ 17   N/A
DOMINION TERM VA 1800   34     350/  3/  9 1007.9S
KIPTOPEKE VA     1800      45  340/ 19/ 23   N/A
CHES BAY BRIDGE  1800   33 41  320/ 17/ 21 1007.1S
CAPE HENRY VA    1800   33     330/ 22/ 24 1005.9F
CHESAPEAKE LGHT  1700   33     350/ 25/ 27 1007.0F
WILLOUBY STN VA  1800   33     330/ 15/ 17 1008.1F
S CRANEY ISL VA  1800          340/  8/ 11 1007.7F
CAPE HENRY BUOY  1800      44                N/A     8/13   3/13
1ST LANDING BUOY 1800   34     340/ 19/ 25 1007.1R
CAPE CHARLES BUO 1800      42                N/A     7/13   7/13
OFFSHORE WE BUOY 1700      46                N/A     9/11   8/11
64NM E OF VA BCH 1800   36 51  340/ 21/ 27 1004.5F  13/13  11/13
DUCK PIER NC     1800   34 43  330/ 19/ 22 1005.7R
44100 DUCK FRF   1800      45                N/A    11/13   8/13
44056 DUCK FRF   1800      44                N/A     9/13   7/13
OREGON INLET NC  1800   35 45  320/ 16/ 19 1006.3S
HATTERAS NC      1800   35 48  330/ 17/ 20 1007.0F
DIAMOND SHLS NC  1800   38 69  340/ 17/ 23 1006.0R   9/12   7/12


USA.gov is the U.S. government's official web portal to all federal, state and local government web resources and services.